Hundvaag 1 weather for Apr 1991
Month no. 46
Obs.
Da.
Temp. Dew Point Precip. Wind
Speed
Wind gusts Cloud cover Press. Humidity Wind dir. Sunny OPT
01.04.1991 6,2   10,7                
02.04.1991 7,8   19,0                
03.04.1991 7,0   9,7                
04.04.1991 5,7   1,6             1  
05.04.1991 6,5   1,1             1  
06.04.1991 6,6   2,1             1  
07.04.1991 5,1   1,3                
08.04.1991 3,8   15,0             1  
09.04.1991 3,0   4,5             1  
10.04.1991 6,1   7,3                
11.04.1991 10,3   7,0             1  
12.04.1991 11,0   0,0             1  
13.04.1991 7,7   0,0             1  
14.04.1991 5,2   4,3             1  
15.04.1991 5,1   2,7             1  
16.04.1991 0,8   1,8             1  
17.04.1991 1,7   0,0             1  
18.04.1991 1,2   0,0             1  
19.04.1991 -0,5   3,2             1  
20.04.1991 0,0   1,0             1  
21.04.1991 4,5   0,0             1  
22.04.1991 3,5   12,5                
23.04.1991 0,7   0,0             1  
24.04.1991 4,0   0,0             1  
25.04.1991 4,9   0,0             1  
26.04.1991 3,0   0,0             1  
27.04.1991 4,1   0,1             1  
28.04.1991 8,0   0,0             1  
29.04.1991 6,0   0,0                
30.04.1991 6,1   0,0             1  
                       
Avrg/Sum 4,8   104,9             23